Flag for Japan Weather past 2 weeks in Nagasaki, Japan

Now
59 °F

Cool.


Feels Like: 59 °F
Forecast: 52 / 65 °F
Wind: 2 mph from East

Location: Nagasaki

Current Time: Mar 29, 2015 at 2:06:39 AM

Latest Report: Mar 29, 2015 at 1:00 AM


Visibility: N/A

Pressure: 30.03 "Hg

Humidity: 64%

Dew point: 47 °F

Location of NagasakiLocation

Historic Weather in Nagasaki — Graph

°F

Nagasaki temperature yesterday

Maximum temperature yesterday: 69 °F (at 2:00 PM)
Minimum temperature yesterday: 51 °F (at 6:00 AM)
Average temperature yesterday: 60 °F

Past Weeks' High & Low Weather Summary

 TemperatureHumidityPressure
High73 °F (Mar 17, 2:00 PM)98% (Mar 19, 3:00 AM)30.57 "Hg (Mar 19, 3:00 AM)
Low38 °F (Mar 25, 6:00 AM)19% (Mar 26, 10:00 AM)29.77 "Hg (Mar 19, 5:00 AM)
Average55 °F65%30.16 "Hg
* Reported Midnight between Mar 13 and Mar 14 — Midnight between Mar 28 and Mar 29, Nagasaki, Weather by CustomWeather, © 2015

Note: Actual official high and low records may vary slightly from our data, if they occured in-between our weather recording intervals... More about our weather records

Advertising

Nagasaki weather history for previous 24 hours

 ConditionsComfort  
Time TempWeatherWind HumidityBarometerVisibility
12:00 AM
Sun, Mar 29
60 °FRefreshingly cool.1 mph58%30.04 "HgN/A
11:00 PM
Sat, Mar 28
60 °FRefreshingly cool.2 mph58%30.05 "HgN/A
10:00 PM60 °FCool.1 mph60%30.06 "HgN/A
9:00 PM61 °FOvercast.1 mph56%30.06 "Hg12 mi
8:00 PM61 °FRefreshingly cool.1 mph56%30.04 "HgN/A
7:00 PM62 °FRefreshingly cool.1 mph54%30.03 "HgN/A
6:00 PM63 °FOvercast.3 mph51%30.03 "Hg16 mi
5:00 PM64 °FMild.6 mph47%30.02 "HgN/A
4:00 PM65 °FMild.7 mph48%30.03 "HgN/A
3:00 PM68 °FScattered clouds.10 mph38%30.04 "Hg16 mi
2:00 PM69 °FMild.9 mph37%30.06 "HgN/A
1:00 PM67 °FMild.5 mph35%30.09 "HgN/A
12:00 PM68 °FPassing clouds.3 mph33%30.11 "Hg19 mi
11:00 AM65 °FMild.3 mph38%30.15 "HgN/A
10:00 AM64 °FMild.3 mph41%30.16 "HgN/A
9:00 AM60 °FPassing clouds.2 mph51%30.17 "Hg16 mi
8:00 AM55 °FCool.2 mph69%30.17 "HgN/A
7:00 AM51 °FCool.2 mph70%30.17 "HgN/A
6:00 AM51 °FScattered clouds.1 mph72%30.18 "Hg12 mi
5:00 AM52 °FCool.1 mph71%30.17 "HgN/A
4:00 AM52 °FCool.2 mph67%30.17 "HgN/A
3:00 AM53 °FOvercast.2 mph68%30.19 "Hg16 mi
2:00 AM53 °FCool.2 mph69%30.20 "HgN/A
Weather by CustomWeather, © 2015

See weather overviewHow to use our weather pages